QPF
0.00 0.00 0.00 0.00 0.00 0.00 0.00 0.00 0.00 0.00 0.00 0.00 0.00 0.00 0.00 0.00 0.01 0.01 0.01 0.01 0.01 0.01 0.02 0.02 0.02 0.02 0.01 0.02 0.02 0.01 0.01 0.01 0.01 0.01 0.01 0.02 0.02 0.02 0.01 0.00 0.00 0.00 0.00 0.00
0.00 0.00 0.00 0.00 0.00 0.00 0.00 0.00 0.00 0.00 0.00 0.00 0.00 0.00 0.00 0.00 0.00 0.00 0.00 0.01 0.01 0.01 0.01 0.01 0.01 0.01 0.01 0.01 0.01 0.01 0.01 0.01 0.01 0.01 0.01 0.01 0.01 0.01 0.01 0.00 0.00 0.00 0.00 0.00
0.00 0.00 0.00 0.00 0.00 0.00 0.00 0.00 0.00 0.00 0.00 0.00 0.00 0.00 0.00 0.00 0.00 0.00 0.00 0.00 0.00 0.00 0.00 0.01 0.01 0.00 0.00 0.00 0.00 0.00 0.00 0.01 0.00 0.00 0.00 0.00 0.00 0.00 0.00 0.00 0.00 0.00 0.00 0.00
0.00 0.00 0.00 0.00 0.00 0.00 0.00 0.00 0.00 0.00 0.00 0.00 0.00 0.00 0.00 0.00 0.00 0.00 0.00 0.00 0.00 0.00 0.00 0.00 0.00 0.00 0.00 0.00 0.00 0.00 0.00 0.00 0.00 0.00 0.00 0.00 0.00 0.00 0.00 0.00 0.00 0.00 0.00 0.00
0.00 0.00 0.00 0.00 0.00 0.00 0.00 0.00 0.00 0.00 0.00 0.00 0.00 0.00 0.00 0.00 0.00 0.00 0.00 0.00 0.00 0.00 0.00 0.00 0.00 0.00 0.00 0.00 0.00 0.00 0.00 0.00 0.00 0.00 0.00 0.00 0.00 0.00 0.00 0.00 0.00 0.00 0.00 0.00
0.00 0.00 0.00 0.00 0.00 0.00 0.00 0.00 0.00 0.00 0.00 0.00 0.00 0.00 0.00 0.00 0.00 0.00 0.00 0.00 0.00 0.00 0.00 0.00 0.00 0.00 0.00 0.00 0.00 0.00 0.00 0.00 0.00 0.00 0.00 0.00 0.00 0.00 0.00 0.00 0.00 0.00 0.00 0.00
0.00 0.00 0.00 0.00 0.00 0.00 0.00 0.00 0.00 0.00 0.00 0.00 0.00 0.00 0.00 0.00 0.00 0.00 0.00 0.00 0.00 0.00 0.00 0.00 0.00 0.00 0.00 0.00 0.00 0.00 0.00 0.00 0.00 0.00 0.00 0.00 0.00 0.00 0.00 0.00 0.00 0.00 0.00 0.00
0.00 0.00 0.00 0.00 0.00 0.00 0.00 0.00 0.00 0.00 0.00 0.00 0.00 0.00 0.00 0.00 0.00 0.00 0.00 0.00 0.00 0.00 0.00 0.00 0.00 0.00 0.00 0.00 0.00 0.00 0.00 0.00 0.00 0.00 0.00 0.00 0.00 0.00 0.00 0.00 0.00 0.00 0.00 0.00
0.00 0.00 0.00 0.00 0.00 0.00 0.00 0.00 0.00 0.00 0.00 0.00 0.00 0.00 0.00 0.00 0.00 0.00 0.00 0.00 0.00 0.00 0.00 0.00 0.00 0.00 0.00 0.00 0.00 0.00 0.00 0.00 0.00 0.00 0.00 0.00 0.00 0.00 0.00 0.00 0.00 0.00 0.00 0.00
0.00 0.00 0.00 0.00 0.00 0.00 0.00 0.00 0.00 0.00 0.00 0.00 0.00 0.00 0.00 0.00 0.00 0.00 0.00 0.00 0.00 0.00 0.00 0.00 0.00 0.00 0.00 0.00 0.00 0.00 0.00 0.00 0.00 0.00 0.00 0.00 0.00 0.00 0.00 0.00 0.00 0.00 0.00 0.00
0.00 0.00 0.00 0.00 0.00 0.00 0.00 0.00 0.00 0.00 0.00 0.00 0.00 0.00 0.00 0.00 0.00 0.00 0.00 0.00 0.00 0.00 0.00 0.00 0.00 0.00 0.00 0.00 0.00 0.00 0.00 0.00 0.00 0.00 0.00 0.00 0.00 0.00 0.00 0.00 0.00 0.00 0.00 0.00
0.00 0.00 0.00 0.00 0.00 0.00 0.00 0.00 0.00 0.00 0.00 0.00 0.00 0.00 0.00 0.00 0.00 0.00 0.00 0.00 0.00 0.00 0.00 0.00 0.00 0.00 0.00 0.00 0.00 0.00 0.00 0.00 0.00 0.00 0.00 0.00 0.00 0.00 0.00 0.00 0.00 0.00 0.00 0.00
0.00 0.00 0.00 0.00 0.00 0.00 0.00 0.00 0.00 0.00 0.00 0.00 0.00 0.00 0.00 0.00 0.00 0.00 0.00 0.00 0.00 0.00 0.00 0.00 0.00 0.00 0.00 0.00 0.00 0.00 0.00 0.00 0.00 0.00 0.00 0.00 0.00 0.00 0.00 0.00 0.00 0.01 0.01 0.01
0.00 0.00 0.00 0.00 0.00 0.00 0.00 0.00 0.00 0.00 0.00 0.00 0.00 0.00 0.00 0.00 0.00 0.00 0.00 0.00 0.00 0.00 0.00 0.00 0.00 0.00 0.00 0.00 0.00 0.00 0.00 0.00 0.00 0.00 0.00 0.00 0.00 0.00 0.00 0.00 0.01 0.01 0.01 0.01
0.00 0.00 0.00 0.00 0.00 0.00 0.00 0.00 0.00 0.00 0.00 0.00 0.00 0.00 0.00 0.00 0.00 0.00 0.00 0.00 0.00 0.00 0.00 0.00 0.00 0.00 0.00 0.00 0.00 0.00 0.00 0.00 0.00 0.00 0.00 0.00 0.00 0.00 0.01 0.01 0.01 0.01 0.01 0.01
0.00 0.00 0.00 0.00 0.00 0.00 0.00 0.00 0.00 0.00 0.00 0.00 0.00 0.00 0.00 0.00 0.00 0.00 0.00 0.00 0.00 0.00 0.00 0.00 0.00 0.00 0.00 0.00 0.00 0.00 0.00 0.00 0.00 0.00 0.00 0.00 0.00 0.01 0.01 0.01 0.01 0.01 0.01 0.01
0.00 0.00 0.00 0.00 0.00 0.00 0.00 0.00 0.00 0.00 0.00 0.00 0.00 0.00 0.00 0.00 0.00 0.00 0.00 0.00 0.00 0.00 0.00 0.00 0.00 0.00 0.00 0.00 0.00 0.00 0.00 0.00 0.00 0.00 0.00 0.00 0.01 0.01 0.01 0.01 0.01 0.01 0.01 0.01
0.00 0.00 0.00 0.00 0.00 0.00 0.00 0.00 0.00 0.00 0.00 0.00 0.00 0.00 0.00 0.00 0.00 0.00 0.00 0.00 0.00 0.00 0.00 0.00 0.00 0.00 0.00 0.00 0.00 0.00 0.00 0.00 0.00 0.00 0.00 0.00 0.01 0.01 0.01 0.01 0.01 0.01 0.01 0.01
0.00 0.00 0.00 0.00 0.00 0.00 0.00 0.00 0.00 0.00 0.00 0.00 0.00 0.00 0.00 0.00 0.00 0.00 0.00 0.00 0.00 0.00 0.00 0.00 0.00 0.00 0.00 0.00 0.00 0.00 0.00 0.00 0.00 0.00 0.00 0.01 0.01 0.01 0.01 0.01 0.01 0.01 0.02 0.02
0.00 0.00 0.00 0.00 0.00 0.00 0.00 0.00 0.00 0.00 0.00 0.00 0.00 0.00 0.00 0.00 0.00 0.00 0.00 0.00 0.00 0.00 0.00 0.00 0.00 0.00 0.00 0.00 0.00 0.00 0.00 0.00 0.00 0.00 0.00 0.01 0.01 0.01 0.01 0.01 0.01 0.02 0.02 0.02
0.00 0.00 0.00 0.00 0.00 0.00 0.00 0.00 0.00 0.00 0.00 0.00 0.00 0.00 0.00 0.00 0.00 0.00 0.00 0.00 0.00 0.00 0.00 0.00 0.00 0.00 0.00 0.00 0.00 0.00 0.00 0.00 0.00 0.01 0.01 0.01 0.01 0.01 0.01 0.01 0.02 0.02 0.02 0.02
0.00 0.00 0.00 0.00 0.00 0.00 0.00 0.00 0.00 0.00 0.00 0.00 0.00 0.00 0.00 0.00 0.00 0.00 0.00 0.00 0.00 0.00 0.00 0.00 0.00 0.00 0.00 0.00 0.00 0.00 0.00 0.00 0.01 0.01 0.01 0.01 0.01 0.01 0.01 0.01 0.02 0.02 0.02 0.01
0.00 0.00 0.00 0.00 0.00 0.00 0.00 0.00 0.00 0.00 0.00 0.00 0.00 0.00 0.00 0.00 0.00 0.00 0.00 0.00 0.00 0.00 0.00 0.00 0.00 0.00 0.00 0.00 0.00 0.00 0.00 0.01 0.01 0.01 0.01 0.01 0.01 0.01 0.02 0.02 0.02 0.02 0.02 0.01
0.00 0.00 0.00 0.00 0.00 0.00 0.00 0.00 0.00 0.00 0.00 0.00 0.00 0.00 0.00 0.00 0.00 0.00 0.00 0.00 0.00 0.00 0.00 0.00 0.00 0.00 0.00 0.00 0.00 0.00 0.01 0.01 0.01 0.01 0.01 0.01 0.01 0.02 0.02 0.02 0.02 0.01 0.02 0.01
0.00 0.00 0.00 0.00 0.00 0.00 0.00 0.00 0.00 0.00 0.00 0.00 0.00 0.00 0.00 0.00 0.00 0.00 0.00 0.00 0.00 0.00 0.00 0.00 0.00 0.00 0.00 0.00 0.00 0.00 0.01 0.01 0.01 0.01 0.01 0.01 0.01 0.02 0.02 0.02 0.02 0.01 0.01 0.01
0.00 0.00 0.00 0.00 0.00 0.00 0.00 0.00 0.00 0.00 0.00 0.00 0.00 0.00 0.00 0.00 0.00 0.00 0.00 0.00 0.00 0.00 0.00 0.00 0.00 0.00 0.00 0.00 0.00 0.01 0.01 0.01 0.01 0.01 0.01 0.01 0.01 0.02 0.02 0.02 0.01 0.01 0.01 0.01
0.00 0.00 0.00 0.00 0.00 0.00 0.00 0.00 0.00 0.00 0.00 0.00 0.00 0.00 0.00 0.00 0.00 0.00 0.00 0.00 0.00 0.00 0.00 0.00 0.00 0.00 0.00 0.00 0.00 0.01 0.01 0.01 0.01 0.01 0.01 0.01 0.01 0.02 0.02 0.02 0.01 0.01 0.01 0.01
MSLP
1019.06 1019.20 1019.34 1019.46 1019.54 1019.55 1019.48 1019.33 1019.09 1018.79 1018.46 1018.14 1017.88 1017.72 1017.69 1017.81 1018.06 1018.43 1018.88 1019.35 1019.80 1020.19 1020.47 1020.63 1020.66 1020.59 1020.42 1020.18 1019.92 1019.65 1019.40 1019.18 1018.98 1018.82 1018.67 1018.53 1018.39 1018.22 1018.04 1017.83 1017.61 1017.37 1017.12 1016.88
1019.54 1019.56 1019.55 1019.51 1019.43 1019.31 1019.14 1018.94 1018.70 1018.45 1018.21 1018.02 1017.89 1017.85 1017.93 1018.11 1018.39 1018.75 1019.15 1019.57 1019.95 1020.28 1020.52 1020.66 1020.70 1020.64 1020.51 1020.32 1020.09 1019.86 1019.62 1019.39 1019.18 1018.98 1018.79 1018.59 1018.38 1018.15 1017.90 1017.61 1017.30 1016.97 1016.64 1016.31
1019.92 1019.79 1019.62 1019.41 1019.18 1018.93 1018.68 1018.45 1018.23 1018.06 1017.93 1017.87 1017.88 1017.98 1018.15 1018.39 1018.70 1019.04 1019.39 1019.74 1020.06 1020.32 1020.51 1020.63 1020.67 1020.64 1020.55 1020.41 1020.23 1020.03 1019.81 1019.59 1019.37 1019.15 1018.91 1018.67 1018.40 1018.11 1017.79 1017.44 1017.06 1016.66 1016.24 1015.83
1020.17 1019.89 1019.54 1019.17 1018.80 1018.45 1018.14 1017.89 1017.72 1017.63 1017.62 1017.70 1017.86 1018.07 1018.34 1018.64 1018.96 1019.28 1019.59 1019.87 1020.12 1020.32 1020.46 1020.56 1020.60 1020.59 1020.53 1020.43 1020.29 1020.12 1019.93 1019.71 1019.48 1019.24 1018.98 1018.70 1018.40 1018.07 1017.70 1017.30 1016.87 1016.41 1015.93 1015.46
1020.27 1019.83 1019.34 1018.83 1018.34 1017.91 1017.57 1017.33 1017.21 1017.21 1017.32 1017.53 1017.81 1018.14 1018.49 1018.84 1019.17 1019.47 1019.74 1019.96 1020.14 1020.28 1020.39 1020.46 1020.49 1020.49 1020.46 1020.38 1020.27 1020.12 1019.93 1019.72 1019.48 1019.23 1018.95 1018.65 1018.32 1017.97 1017.59 1017.17 1016.71 1016.21 1015.69 1015.16
1020.20 1019.64 1019.03 1018.42 1017.86 1017.39 1017.03 1016.82 1016.76 1016.85 1017.06 1017.38 1017.76 1018.18 1018.60 1018.98 1019.32 1019.61 1019.83 1020.01 1020.14 1020.23 1020.30 1020.35 1020.37 1020.37 1020.34 1020.27 1020.17 1020.02 1019.84 1019.61 1019.36 1019.09 1018.80 1018.49 1018.16 1017.80 1017.41 1016.99 1016.52 1016.01 1015.46 1014.89
1019.99 1019.35 1018.67 1018.01 1017.41 1016.93 1016.60 1016.43 1016.42 1016.59 1016.88 1017.28 1017.74 1018.22 1018.67 1019.08 1019.42 1019.69 1019.89 1020.03 1020.12 1020.18 1020.22 1020.24 1020.25 1020.24 1020.20 1020.13 1020.01 1019.85 1019.65 1019.41 1019.14 1018.84 1018.54 1018.22 1017.88 1017.52 1017.14 1016.72 1016.25 1015.73 1015.16 1014.57
1019.67 1018.99 1018.30 1017.64 1017.06 1016.60 1016.31 1016.19 1016.24 1016.46 1016.82 1017.27 1017.77 1018.28 1018.75 1019.16 1019.50 1019.75 1019.92 1020.03 1020.09 1020.13 1020.14 1020.15 1020.14 1020.11 1020.06 1019.96 1019.83 1019.64 1019.41 1019.13 1018.83 1018.51 1018.18 1017.84 1017.49 1017.13 1016.74 1016.32 1015.85 1015.32 1014.74 1014.13
1019.25 1018.60 1017.94 1017.33 1016.81 1016.42 1016.18 1016.12 1016.23 1016.50 1016.89 1017.36 1017.88 1018.39 1018.86 1019.25 1019.57 1019.80 1019.95 1020.03 1020.07 1020.09 1020.08 1020.07 1020.04 1019.99 1019.91 1019.79 1019.62 1019.40 1019.13 1018.81 1018.47 1018.11 1017.75 1017.38 1017.01 1016.62 1016.22 1015.77 1015.29 1014.75 1014.15 1013.52
1018.76 1018.18 1017.61 1017.09 1016.67 1016.37 1016.22 1016.23 1016.39 1016.69 1017.10 1017.57 1018.07 1018.56 1019.00 1019.37 1019.66 1019.86 1019.98 1020.04 1020.06 1020.05 1020.03 1019.99 1019.94 1019.86 1019.75 1019.60 1019.39 1019.13 1018.81 1018.46 1018.07 1017.67 1017.26 1016.85 1016.43 1016.01 1015.56 1015.09 1014.57 1014.00 1013.39 1012.73
1018.21 1017.74 1017.30 1016.91 1016.62 1016.43 1016.38 1016.46 1016.68 1017.00 1017.41 1017.88 1018.35 1018.80 1019.20 1019.53 1019.77 1019.93 1020.02 1020.05 1020.04 1020.00 1019.94 1019.88 1019.79 1019.69 1019.54 1019.36 1019.11 1018.82 1018.46 1018.07 1017.64 1017.19 1016.72 1016.26 1015.79 1015.31 1014.81 1014.29 1013.73 1013.13 1012.49 1011.82
1017.61 1017.29 1017.00 1016.76 1016.61 1016.56 1016.61 1016.77 1017.04 1017.39 1017.80 1018.24 1018.68 1019.08 1019.43 1019.70 1019.89 1020.00 1020.04 1020.03 1019.97 1019.89 1019.80 1019.69 1019.57 1019.42 1019.25 1019.03 1018.75 1018.43 1018.05 1017.62 1017.15 1016.66 1016.15 1015.63 1015.10 1014.56 1014.00 1013.42 1012.82 1012.18 1011.52 1010.84
1017.00 1016.82 1016.69 1016.62 1016.62 1016.70 1016.86 1017.10 1017.42 1017.79 1018.20 1018.61 1019.01 1019.37 1019.66 1019.87 1020.00 1020.05 1020.03 1019.96 1019.85 1019.71 1019.56 1019.40 1019.23 1019.04 1018.82 1018.57 1018.28 1017.93 1017.53 1017.09 1016.60 1016.07 1015.52 1014.96 1014.38 1013.78 1013.17 1012.55 1011.90 1011.24 1010.56 1009.89
1016.41 1016.38 1016.40 1016.48 1016.62 1016.82 1017.08 1017.40 1017.76 1018.15 1018.55 1018.94 1019.30 1019.60 1019.83 1019.98 1020.05 1020.03 1019.95 1019.80 1019.62 1019.41 1019.20 1018.97 1018.74 1018.51 1018.25 1017.98 1017.66 1017.31 1016.90 1016.45 1015.96 1015.42 1014.86 1014.26 1013.64 1013.01 1012.36 1011.70 1011.04 1010.36 1009.69 1009.03
1015.89 1015.98 1016.14 1016.35 1016.61 1016.91 1017.26 1017.63 1018.02 1018.42 1018.81 1019.17 1019.49 1019.74 1019.91 1020.00 1020.00 1019.91 1019.75 1019.53 1019.27 1018.99 1018.70 1018.40 1018.11 1017.82 1017.54 1017.23 1016.91 1016.56 1016.16 1015.72 1015.24 1014.71 1014.14 1013.54 1012.91 1012.26 1011.59 1010.92 1010.24 1009.57 1008.91 1008.28
1015.51 1015.70 1015.95 1016.26 1016.61 1016.99 1017.38 1017.78 1018.19 1018.58 1018.94 1019.27 1019.54 1019.74 1019.85 1019.88 1019.81 1019.66 1019.42 1019.13 1018.80 1018.43 1018.07 1017.70 1017.35 1017.02 1016.70 1016.37 1016.04 1015.70 1015.32 1014.90 1014.43 1013.93 1013.37 1012.78 1012.16 1011.51 1010.85 1010.18 1009.52 1008.87 1008.24 1007.64
1015.30 1015.56 1015.88 1016.25 1016.65 1017.06 1017.47 1017.87 1018.25 1018.62 1018.94 1019.22 1019.43 1019.57 1019.63 1019.59 1019.46 1019.25 1018.95 1018.59 1018.19 1017.76 1017.33 1016.91 1016.51 1016.13 1015.77 1015.44 1015.10 1014.76 1014.40 1014.00 1013.57 1013.09 1012.56 1011.99 1011.39 1010.76 1010.12 1009.48 1008.84 1008.22 1007.62 1007.06
1015.29 1015.59 1015.95 1016.34 1016.74 1017.14 1017.53 1017.89 1018.23 1018.53 1018.80 1019.01 1019.16 1019.23 1019.23 1019.14 1018.95 1018.68 1018.34 1017.93 1017.48 1017.00 1016.52 1016.05 1015.61 1015.20 1014.82 1014.47 1014.13 1013.79 1013.44 1013.07 1012.66 1012.20 1011.70 1011.16 1010.59 1009.99 1009.37 1008.76 1008.15 1007.56 1007.00 1006.47
1015.48 1015.80 1016.15 1016.52 1016.89 1017.24 1017.56 1017.86 1018.11 1018.33 1018.51 1018.64 1018.71 1018.72 1018.66 1018.51 1018.28 1017.98 1017.60 1017.16 1016.68 1016.17 1015.66 1015.17 1014.70 1014.27 1013.87 1013.51 1013.16 1012.82 1012.48 1012.11 1011.72 1011.28 1010.80 1010.28 1009.73 1009.16 1008.57 1007.98 1007.41 1006.85 1006.32 1005.82
1015.82 1016.12 1016.44 1016.76 1017.06 1017.33 1017.56 1017.76 1017.91 1018.03 1018.10 1018.14 1018.13 1018.06 1017.94 1017.74 1017.48 1017.15 1016.75 1016.30 1015.81 1015.30 1014.79 1014.28 1013.81 1013.36 1012.95 1012.57 1012.22 1011.87 1011.52 1011.15 1010.76 1010.32 1009.85 1009.35 1008.81 1008.25 1007.69 1007.13 1006.58 1006.06 1005.56 1005.09
1016.21 1016.47 1016.74 1016.99 1017.20 1017.37 1017.49 1017.57 1017.61 1017.61 1017.58 1017.51 1017.42 1017.28 1017.10 1016.87 1016.58 1016.24 1015.84 1015.39 1014.91 1014.41 1013.90 1013.40 1012.93 1012.48 1012.06 1011.67 1011.29 1010.93 1010.57 1010.18 1009.78 1009.34 1008.86 1008.36 1007.83 1007.29 1006.74 1006.20 1005.67 1005.18 1004.71 1004.27
1016.55 1016.77 1016.97 1017.13 1017.24 1017.29 1017.30 1017.26 1017.18 1017.07 1016.94 1016.78 1016.60 1016.40 1016.17 1015.91 1015.61 1015.26 1014.87 1014.44 1013.98 1013.50 1013.01 1012.53 1012.06 1011.61 1011.18 1010.78 1010.39 1010.00 1009.61 1009.20 1008.78 1008.32 1007.84 1007.33 1006.80 1006.27 1005.73 1005.21 1004.71 1004.24 1003.80 1003.39
1016.76 1016.91 1017.03 1017.09 1017.10 1017.06 1016.95 1016.80 1016.62 1016.41 1016.19 1015.95 1015.71 1015.46 1015.19 1014.90 1014.59 1014.25 1013.87 1013.46 1013.03 1012.57 1012.11 1011.64 1011.18 1010.74 1010.30 1009.88 1009.47 1009.06 1008.64 1008.21 1007.76 1007.29 1006.79 1006.28 1005.75 1005.23 1004.71 1004.21 1003.74 1003.30 1002.89 1002.53
1016.75 1016.82 1016.86 1016.83 1016.75 1016.61 1016.41 1016.18 1015.91 1015.63 1015.34 1015.05 1014.75 1014.47 1014.17 1013.87 1013.56 1013.22 1012.86 1012.47 1012.06 1011.63 1011.19 1010.74 1010.29 1009.85 1009.41 1008.98 1008.55 1008.11 1007.67 1007.22 1006.75 1006.26 1005.76 1005.25 1004.73 1004.22 1003.72 1003.24 1002.80 1002.40 1002.04 1001.72
1016.48 1016.48 1016.43 1016.32 1016.16 1015.94 1015.68 1015.38 1015.06 1014.73 1014.40 1014.07 1013.76 1013.45 1013.14 1012.84 1012.52 1012.19 1011.84 1011.47 1011.08 1010.68 1010.25 1009.82 1009.38 1008.94 1008.50 1008.06 1007.62 1007.17 1006.71 1006.25 1005.77 1005.27 1004.77 1004.27 1003.76 1003.27 1002.80 1002.36 1001.96 1001.60 1001.29 1001.03
1015.95 1015.87 1015.74 1015.56 1015.34 1015.07 1014.76 1014.43 1014.09 1013.74 1013.39 1013.06 1012.74 1012.42 1012.12 1011.81 1011.50 1011.18 1010.85 1010.49 1010.12 1009.73 1009.32 1008.90 1008.47 1008.04 1007.60 1007.16 1006.71 1006.26 1005.80 1005.33 1004.85 1004.37 1003.87 1003.39 1002.90 1002.44 1002.01 1001.61 1001.25 1000.94 1000.68 1000.47
1015.20 1015.05 1014.85 1014.61 1014.35 1014.04 1013.72 1013.38 1013.04 1012.69 1012.35 1012.03 1011.72 1011.41 1011.12 1010.82 1010.52 1010.21 1009.88 1009.54 1009.18 1008.80 1008.41 1008.01 1007.59 1007.17 1006.75 1006.31 1005.88 1005.43 1004.98 1004.52 1004.05 1003.58 1003.11 1002.64 1002.19 1001.76 1001.36 1001.00 1000.69 1000.42 1000.21 1000.06
Thickness
5530 5531 5531 5533 5534 5527 5525 5526 5527 5537 5534 5550 5550 5549 5548 5546 5543 5540 5538 5535 5533 5529 5526 5524 5522 5521 5520 5518 5517 5516 5514 5512 5510 5509 5507 5504 5502 5499 5497 5494 5491 5487 5484 5480
5525 5527 5523 5524 5531 5529 5529 5530 5529 5533 5540 5549 5545 5543 5541 5539 5537 5535 5533 5530 5528 5524 5521 5518 5515 5513 5512 5510 5509 5507 5505 5503 5501 5499 5496 5494 5491 5488 5485 5482 5479 5475 5472 5469
5516 5515 5523 5529 5541 5536 5531 5531 5531 5535 5545 5545 5541 5538 5536 5534 5530 5528 5526 5524 5520 5517 5513 5511 5508 5506 5503 5501 5499 5497 5495 5493 5490 5488 5485 5483 5480 5477 5473 5470 5467 5463 5461 5458
5502 5512 5523 5552 5549 5539 5533 5534 5530 5536 5539 5537 5535 5533 5530 5527 5524 5521 5519 5516 5512 5508 5505 5502 5499 5497 5494 5491 5488 5486 5483 5481 5479 5477 5474 5471 5468 5464 5461 5458 5455 5452 5449 5446
5494 5496 5513 5537 5540 5532 5528 5534 5534 5530 5532 5528 5524 5522 5520 5521 5517 5514 5511 5508 5503 5500 5497 5493 5490 5487 5484 5481 5478 5475 5473 5470 5468 5465 5462 5459 5455 5452 5449 5446 5443 5440 5437 5434
5487 5497 5516 5543 5539 5531 5530 5531 5535 5526 5523 5518 5514 5509 5513 5514 5509 5505 5502 5497 5494 5490 5486 5483 5480 5476 5473 5470 5466 5464 5462 5460 5457 5453 5450 5447 5443 5440 5437 5433 5430 5428 5425 5422
5483 5486 5506 5525 5526 5524 5520 5529 5528 5519 5515 5508 5505 5507 5506 5502 5498 5495 5492 5488 5484 5480 5476 5472 5469 5465 5462 5459 5456 5455 5452 5449 5445 5442 5438 5434 5431 5427 5423 5420 5417 5414 5412 5411
5478 5479 5503 5520 5512 5512 5518 5518 5515 5510 5506 5501 5498 5496 5493 5490 5487 5483 5480 5477 5474 5469 5465 5462 5457 5454 5451 5448 5447 5444 5440 5437 5433 5429 5425 5422 5418 5414 5410 5406 5403 5401 5399 5398
5491 5508 5512 5507 5508 5509 5505 5504 5504 5499 5497 5492 5488 5484 5482 5479 5475 5472 5469 5465 5461 5457 5453 5450 5446 5442 5439 5438 5435 5431 5428 5424 5421 5417 5413 5409 5404 5401 5397 5392 5389 5388 5385 5385
5477 5492 5495 5495 5494 5495 5494 5493 5493 5490 5486 5482 5477 5474 5470 5466 5463 5459 5456 5453 5449 5444 5441 5439 5435 5431 5428 5426 5423 5419 5415 5412 5409 5405 5402 5397 5393 5389 5385 5381 5377 5376 5374 5373
5472 5484 5485 5489 5487 5487 5486 5482 5479 5477 5475 5471 5466 5463 5459 5454 5451 5448 5445 5441 5437 5432 5429 5427 5424 5421 5418 5414 5410 5406 5403 5400 5396 5393 5389 5386 5382 5378 5375 5372 5367 5365 5364 5362
5481 5485 5479 5484 5484 5480 5476 5473 5470 5467 5463 5460 5455 5452 5448 5443 5440 5436 5432 5429 5425 5421 5418 5415 5412 5409 5406 5402 5398 5393 5391 5388 5384 5380 5377 5374 5371 5370 5368 5363 5362 5358 5356 5353
5479 5477 5471 5472 5471 5468 5465 5463 5460 5456 5452 5448 5444 5439 5436 5432 5428 5424 5420 5417 5413 5410 5407 5404 5401 5398 5395 5391 5386 5382 5378 5376 5372 5369 5365 5362 5359 5356 5357 5357 5354 5350 5347 5344
5462 5460 5458 5458 5457 5455 5452 5450 5446 5443 5439 5435 5431 5427 5422 5418 5415 5411 5408 5406 5402 5399 5396 5392 5389 5387 5384 5380 5376 5372 5368 5365 5361 5357 5354 5350 5347 5344 5342 5341 5342 5342 5339 5335
5449 5447 5446 5446 5443 5440 5437 5433 5430 5427 5425 5421 5417 5413 5409 5405 5403 5400 5398 5394 5390 5387 5385 5381 5378 5377 5374 5369 5365 5361 5357 5354 5350 5347 5343 5340 5337 5334 5332 5330 5329 5329 5328 5326
5437 5434 5432 5430 5429 5427 5424 5421 5418 5415 5412 5409 5405 5401 5398 5394 5391 5388 5385 5382 5378 5377 5375 5371 5368 5367 5364 5359 5355 5351 5348 5345 5341 5337 5334 5331 5328 5325 5323 5321 5319 5318 5317 5316
5422 5421 5419 5416 5416 5414 5412 5409 5406 5404 5400 5396 5394 5390 5386 5382 5379 5377 5375 5372 5368 5366 5363 5360 5359 5358 5354 5349 5344 5341 5338 5335 5332 5328 5325 5322 5319 5317 5314 5312 5311 5310 5309 5307
5414 5413 5411 5409 5405 5402 5401 5398 5395 5392 5389 5386 5382 5377 5373 5369 5367 5366 5364 5361 5358 5356 5355 5351 5349 5347 5344 5339 5334 5331 5327 5325 5322 5319 5316 5314 5311 5309 5307 5305 5303 5302 5302 5300
5401 5400 5398 5396 5394 5390 5388 5386 5383 5380 5377 5373 5369 5365 5362 5359 5356 5354 5351 5348 5345 5344 5347 5344 5341 5337 5333 5330 5326 5322 5318 5315 5313 5311 5308 5307 5305 5302 5299 5297 5296 5295 5294 5292
5388 5386 5384 5383 5381 5377 5375 5373 5370 5367 5364 5360 5356 5353 5351 5349 5346 5342 5339 5338 5337 5336 5336 5334 5330 5327 5324 5321 5317 5313 5310 5307 5305 5303 5301 5298 5296 5295 5293 5291 5290 5288 5287 5285
5373 5372 5371 5369 5367 5365 5363 5360 5357 5354 5352 5348 5344 5342 5341 5339 5336 5331 5328 5330 5334 5329 5326 5324 5321 5318 5315 5312 5310 5306 5302 5299 5297 5295 5293 5291 5290 5288 5286 5285 5284 5283 5281 5279
5359 5358 5357 5356 5354 5353 5351 5347 5345 5343 5340 5337 5335 5332 5329 5328 5326 5323 5321 5320 5323 5321 5317 5315 5312 5310 5307 5305 5302 5298 5295 5292 5290 5288 5286 5285 5283 5282 5281 5280 5278 5277 5275 5274
5347 5346 5345 5344 5342 5341 5339 5336 5333 5331 5329 5327 5325 5323 5320 5319 5317 5313 5315 5316 5312 5311 5308 5306 5304 5303 5301 5298 5294 5291 5289 5286 5284 5282 5281 5279 5278 5276 5275 5274 5273 5271 5270 5269
5337 5336 5334 5332 5329 5327 5327 5327 5324 5322 5319 5318 5316 5314 5311 5309 5309 5308 5306 5306 5305 5303 5300 5299 5298 5296 5294 5291 5287 5285 5283 5281 5279 5277 5276 5274 5273 5271 5270 5269 5268 5267 5265 5264
5326 5324 5322 5320 5318 5318 5318 5316 5314 5312 5311 5310 5310 5308 5305 5302 5300 5301 5298 5296 5296 5294 5293 5292 5290 5289 5286 5283 5281 5279 5277 5276 5274 5273 5272 5270 5268 5267 5265 5264 5263 5263 5262 5261
5315 5314 5314 5312 5310 5309 5307 5305 5304 5304 5302 5302 5303 5302 5299 5296 5293 5291 5289 5288 5286 5286 5284 5283 5281 5280 5277 5276 5275 5273 5272 5271 5270 5269 5268 5266 5265 5263 5262 5261 5260 5260 5259 5258
5304 5303 5301 5301 5302 5300 5297 5295 5294 5295 5294 5292 5293 5294 5291 5288 5285 5282 5281 5280 5279 5278 5276 5275 5274 5272 5271 5270 5269 5268 5268 5267 5266 5265 5264 5263 5261 5260 5259 5258 5257 5257 5256 5255